contact:dominique.lefevre@mio.osupytheas.fr, maurice.libes@osupytheas.fr, didier.mallarino@osupytheas.fr
Project:EMSO http://www.emso-fr.org/EMSO-France
Depth: 2436.0 m
Title:EMSO Ligure Ouest : Data MII capteur MICROCAT
DateTime_Computer,Latitude,Longitude,Temperature,Conductivity,Pressure,DateTime_Instrument
DateTime_Computer,Latitude,Longitude,degC,S m-1,dbar,DateTime_Instrument
2023-04-11T00:00:27Z,42.805,6.029,13.3029,4.60085,2470.754,2023-4-11T02:03:21Z
2023-04-11T00:03:30Z,42.805,6.029,13.3030,4.60082,2470.74,2023-4-11T02:06:24Z
2023-04-11T00:06:33Z,42.805,6.029,13.3028,4.60084,2470.74,2023-4-11T02:09:27Z
2023-04-11T00:09:36Z,42.805,6.029,13.3028,4.60084,2470.763,2023-4-11T02:12:30Z
2023-04-11T00:12:39Z,42.805,6.029,13.3029,4.60084,2470.717,2023-4-11T02:15:34Z
2023-04-11T00:15:42Z,42.805,6.029,13.3026,4.60082,2470.73,2023-4-11T02:18:37Z
2023-04-11T00:18:45Z,42.805,6.029,13.3029,4.60085,2470.763,2023-4-11T02:21:40Z
2023-04-11T00:21:48Z,42.805,6.029,13.3024,4.60084,2470.763,2023-4-11T02:24:43Z
2023-04-11T00:24:51Z,42.805,6.029,13.3027,4.60086,2470.717,2023-4-11T02:27:46Z
2023-04-11T00:27:55Z,42.805,6.029,13.3029,4.60084,2470.777,2023-4-11T02:30:49Z
2023-04-11T00:30:58Z,42.805,6.029,13.3029,4.60086,2470.74,2023-4-11T02:33:52Z
2023-04-11T00:34:01Z,42.805,6.029,13.3029,4.60086,2470.763,2023-4-11T02:36:55Z
2023-04-11T00:37:04Z,42.805,6.029,13.3028,4.60084,2470.717,2023-4-11T02:39:58Z
2023-04-11T00:40:07Z,42.805,6.029,13.3027,4.60085,2470.693,2023-4-11T02:43:01Z
2023-04-11T00:43:10Z,42.805,6.029,13.3028,4.60086,2470.74,2023-4-11T02:46:04Z
2023-04-11T00:46:13Z,42.805,6.029,13.3026,4.60085,2470.693,2023-4-11T02:49:07Z
2023-04-11T00:49:16Z,42.805,6.029,13.3027,4.60084,2470.717,2023-4-11T02:52:10Z
2023-04-11T00:52:19Z,42.805,6.029,13.3030,4.60084,2470.754,2023-4-11T02:55:14Z
2023-04-11T00:55:22Z,42.805,6.029,13.3028,4.60088,2470.74,2023-4-11T02:58:17Z
2023-04-11T00:58:25Z,42.805,6.029,13.3029,4.60088,2470.754,2023-4-11T03:01:20Z
2023-04-11T01:01:28Z,42.805,6.029,13.3031,4.60085,2470.693,2023-4-11T03:04:23Z
2023-04-11T01:04:32Z,42.805,6.029,13.3026,4.60091,2470.754,2023-4-11T03:07:26Z
2023-04-11T01:07:35Z,42.805,6.029,13.3028,4.60083,2470.693,2023-4-11T03:10:29Z
2023-04-11T01:10:38Z,42.805,6.029,13.3033,4.60084,2470.67,2023-4-11T03:13:32Z
2023-04-11T01:13:41Z,42.805,6.029,13.3028,4.60084,2470.693,2023-4-11T03:16:35Z
2023-04-11T01:16:44Z,42.805,6.029,13.3030,4.60082,2470.684,2023-4-11T03:19:38Z
2023-04-11T01:19:47Z,42.805,6.029,13.3031,4.60084,2470.693,2023-4-11T03:22:41Z
2023-04-11T01:22:50Z,42.805,6.029,13.3030,4.60096,2470.717,2023-4-11T03:25:44Z
2023-04-11T01:25:53Z,42.805,6.029,13.3032,4.60090,2470.67,2023-4-11T03:28:47Z
2023-04-11T01:28:56Z,42.805,6.029,13.3029,4.60084,2470.693,2023-4-11T03:31:51Z
2023-04-11T01:31:59Z,42.805,6.029,13.3025,4.60087,2470.693,2023-4-11T03:34:54Z
2023-04-11T01:35:02Z,42.805,6.029,13.3030,4.60089,2470.707,2023-4-11T03:37:57Z
2023-04-11T01:38:05Z,42.805,6.029,13.3026,4.60081,2470.693,2023-4-11T03:41:00Z
2023-04-11T01:41:08Z,42.805,6.029,13.3025,4.60081,2470.73,2023-4-11T03:44:03Z
2023-04-11T01:44:12Z,42.805,6.029,13.3026,4.60081,2470.707,2023-4-11T03:47:06Z
2023-04-11T01:47:15Z,42.805,6.029,13.3029,4.60081,2470.693,2023-4-11T03:50:09Z
2023-04-11T01:50:18Z,42.805,6.029,13.3029,4.60080,2470.684,2023-4-11T03:53:12Z
2023-04-11T01:53:21Z,42.805,6.029,13.3028,4.60080,2470.67,2023-4-11T03:56:15Z
2023-04-11T01:56:24Z,42.805,6.029,13.3027,4.60080,2470.693,2023-4-11T03:59:18Z
2023-04-11T01:59:27Z,42.805,6.029,13.3029,4.60080,2470.693,2023-4-11T04:02:21Z
2023-04-11T02:02:30Z,42.805,6.029,13.3028,4.60081,2470.646,2023-4-11T04:05:24Z
2023-04-11T02:05:33Z,42.805,6.029,13.3026,4.60081,2470.67,2023-4-11T04:08:27Z
2023-04-11T02:08:36Z,42.805,6.029,13.3028,4.60081,2470.67,2023-4-11T04:11:31Z
2023-04-11T02:11:39Z,42.805,6.029,13.3027,4.60081,2470.717,2023-4-11T04:14:34Z
2023-04-11T02:14:42Z,42.805,6.029,13.3029,4.60082,2470.67,2023-4-11T04:17:37Z
2023-04-11T02:17:45Z,42.805,6.029,13.3029,4.60081,2470.707,2023-4-11T04:20:40Z
2023-04-11T02:20:48Z,42.805,6.029,13.3027,4.60081,2470.67,2023-4-11T04:23:43Z
2023-04-11T02:23:52Z,42.805,6.029,13.3026,4.60088,2470.67,2023-4-11T04:26:46Z
2023-04-11T02:26:55Z,42.805,6.029,13.3024,4.60081,2470.684,2023-4-11T04:29:49Z
2023-04-11T02:29:58Z,42.805,6.029,13.3028,4.60082,2470.693,2023-4-11T04:32:52Z
2023-04-11T02:33:01Z,42.805,6.029,13.3029,4.60087,2470.67,2023-4-11T04:35:55Z
2023-04-11T02:36:04Z,42.805,6.029,13.3029,4.60082,2470.67,2023-4-11T04:38:58Z
2023-04-11T02:39:07Z,42.805,6.029,13.3030,4.60082,2470.684,2023-4-11T04:42:01Z
2023-04-11T02:42:10Z,42.805,6.029,13.3027,4.60081,2470.67,2023-4-11T04:45:04Z
2023-04-11T02:45:13Z,42.805,6.029,13.3024,4.60079,2470.717,2023-4-11T04:48:08Z
2023-04-11T02:48:16Z,42.805,6.029,13.3029,4.60081,2470.717,2023-4-11T04:51:11Z
2023-04-11T02:51:19Z,42.805,6.029,13.3028,4.60080,2470.693,2023-4-11T04:54:14Z
2023-04-11T02:54:22Z,42.805,6.029,13.3022,4.60079,2470.67,2023-4-11T04:57:17Z
2023-04-11T02:57:25Z,42.805,6.029,13.3026,4.60079,2470.67,2023-4-11T05:00:20Z
2023-04-11T03:00:29Z,42.805,6.029,13.3024,4.60077,2470.684,2023-4-11T05:03:23Z
2023-04-11T03:03:32Z,42.805,6.029,13.3024,4.60078,2470.661,2023-4-11T05:06:26Z
2023-04-11T03:06:35Z,42.805,6.029,13.3023,4.60078,2470.684,2023-4-11T05:09:29Z
2023-04-11T03:09:38Z,42.805,6.029,13.3029,4.60077,2470.67,2023-4-11T05:12:32Z
2023-04-11T03:12:41Z,42.805,6.029,13.3024,4.60078,2470.67,2023-4-11T05:15:35Z
2023-04-11T03:15:44Z,42.805,6.029,13.3025,4.60077,2470.67,2023-4-11T05:18:38Z
2023-04-11T03:18:47Z,42.805,6.029,13.3024,4.60079,2470.684,2023-4-11T05:21:41Z
2023-04-11T03:21:50Z,42.805,6.029,13.3026,4.60077,2470.646,2023-4-11T05:24:45Z
2023-04-11T03:24:53Z,42.805,6.029,13.3026,4.60077,2470.646,2023-4-11T05:27:48Z
2023-04-11T03:27:56Z,42.805,6.029,13.3023,4.60077,2470.693,2023-4-11T05:30:51Z
2023-04-11T03:30:59Z,42.805,6.029,13.3020,4.60077,2470.633,2023-4-11T05:33:54Z
2023-04-11T03:34:02Z,42.805,6.029,13.3024,4.60077,2470.67,2023-4-11T05:36:57Z
2023-04-11T03:37:06Z,42.805,6.029,13.3025,4.60077,2470.661,2023-4-11T05:40:00Z
2023-04-11T03:40:09Z,42.805,6.029,13.3021,4.60076,2470.661,2023-4-11T05:43:03Z
2023-04-11T03:43:12Z,42.805,6.029,13.3026,4.60077,2470.646,2023-4-11T05:46:06Z
2023-04-11T03:46:15Z,42.805,6.029,13.3028,4.60079,2470.67,2023-4-11T05:49:09Z
2023-04-11T03:49:18Z,42.805,6.029,13.3026,4.60080,2470.684,2023-4-11T05:52:12Z
2023-04-11T03:52:21Z,42.805,6.029,13.3022,4.60079,2470.67,2023-4-11T05:55:15Z
2023-04-11T03:55:24Z,42.805,6.029,13.3024,4.60077,2470.67,2023-4-11T05:58:18Z
2023-04-11T03:58:27Z,42.805,6.029,13.3025,4.60078,2470.67,2023-4-11T06:01:21Z
2023-04-11T04:01:30Z,42.805,6.029,13.3021,4.60077,2470.6,2023-4-11T06:04:25Z
2023-04-11T04:04:33Z,42.805,6.029,13.3026,4.60078,2470.661,2023-4-11T06:07:28Z
2023-04-11T04:07:36Z,42.805,6.029,13.3022,4.60079,2470.61,2023-4-11T06:10:31Z
2023-04-11T04:10:39Z,42.805,6.029,13.3026,4.60076,2470.67,2023-4-11T06:13:34Z
2023-04-11T04:13:42Z,42.805,6.029,13.3025,4.60077,2470.646,2023-4-11T06:16:37Z
2023-04-11T04:16:46Z,42.805,6.029,13.3021,4.60076,2470.624,2023-4-11T06:19:40Z
2023-04-11T04:19:49Z,42.805,6.029,13.3026,4.60079,2470.646,2023-4-11T06:22:43Z
2023-04-11T04:22:52Z,42.805,6.029,13.3019,4.60077,2470.624,2023-4-11T06:25:46Z
2023-04-11T04:25:55Z,42.805,6.029,13.3027,4.60077,2470.661,2023-4-11T06:28:49Z
2023-04-11T04:28:58Z,42.805,6.029,13.3023,4.60080,2470.661,2023-4-11T06:31:52Z
2023-04-11T04:32:01Z,42.805,6.029,13.3024,4.60076,2470.624,2023-4-11T06:34:55Z
2023-04-11T04:35:04Z,42.805,6.029,13.3021,4.60079,2470.661,2023-4-11T06:37:58Z
2023-04-11T04:38:07Z,42.805,6.029,13.3026,4.60076,2470.661,2023-4-11T06:41:02Z
2023-04-11T04:41:10Z,42.805,6.029,13.3025,4.60077,2470.646,2023-4-11T06:44:05Z
2023-04-11T04:44:13Z,42.805,6.029,13.3026,4.60078,2470.646,2023-4-11T06:47:08Z
2023-04-11T04:47:16Z,42.805,6.029,13.3024,4.60080,2470.624,2023-4-11T06:50:11Z
2023-04-11T04:50:19Z,42.805,6.029,13.3026,4.60081,2470.637,2023-4-11T06:53:14Z
2023-04-11T04:53:23Z,42.805,6.029,13.3021,4.60078,2470.646,2023-4-11T06:56:17Z
2023-04-11T04:56:26Z,42.805,6.029,13.3025,4.60078,2470.646,2023-4-11T06:59:20Z
2023-04-11T04:59:29Z,42.805,6.029,13.3027,4.60078,2470.624,2023-4-11T07:02:23Z
2023-04-11T05:02:32Z,42.805,6.029,13.3024,4.60077,2470.661,2023-4-11T07:05:26Z
2023-04-11T05:05:35Z,42.805,6.029,13.3024,4.60081,2470.624,2023-4-11T07:08:29Z
2023-04-11T05:08:38Z,42.805,6.029,13.3024,4.60079,2470.614,2023-4-11T07:11:32Z
2023-04-11T05:11:41Z,42.805,6.029,13.3022,4.60080,2470.633,2023-4-11T07:14:35Z
2023-04-11T05:14:44Z,42.805,6.029,13.3032,4.60077,2470.637,2023-4-11T07:17:39Z
2023-04-11T05:17:47Z,42.805,6.029,13.3022,4.60084,2470.637,2023-4-11T07:20:42Z
2023-04-11T05:20:50Z,42.805,6.029,13.3026,4.60078,2470.61,2023-4-11T07:23:45Z
2023-04-11T05:23:53Z,42.805,6.029,13.3023,4.60077,2470.624,2023-4-11T07:26:48Z
2023-04-11T05:26:56Z,42.805,6.029,13.3028,4.60079,2470.624,2023-4-11T07:29:51Z
2023-04-11T05:30:00Z,42.805,6.029,13.3024,4.60084,2470.637,2023-4-11T07:32:54Z
2023-04-11T05:33:03Z,42.805,6.029,13.3026,4.60081,2470.6,2023-4-11T07:35:57Z
2023-04-11T05:36:06Z,42.805,6.029,13.3025,4.60080,2470.624,2023-4-11T07:39:00Z
2023-04-11T05:39:09Z,42.805,6.029,13.3022,4.60077,2470.624,2023-4-11T07:42:03Z
2023-04-11T05:42:12Z,42.805,6.029,13.3021,4.60080,2470.646,2023-4-11T07:45:06Z
2023-04-11T05:45:15Z,42.805,6.029,13.3024,4.60081,2470.624,2023-4-11T07:48:09Z
2023-04-11T05:48:18Z,42.805,6.029,13.3021,4.60078,2470.624,2023-4-11T07:51:12Z
2023-04-11T05:51:21Z,42.805,6.029,13.3024,4.60078,2470.637,2023-4-11T07:54:15Z
2023-04-11T05:54:24Z,42.805,6.029,13.3027,4.60081,2470.661,2023-4-11T07:57:19Z
2023-04-11T05:57:27Z,42.805,6.029,13.3039,4.60105,2470.624,2023-4-11T08:00:22Z
2023-04-11T06:00:30Z,42.805,6.029,13.3033,4.60084,2470.67,2023-4-11T08:03:25Z
2023-04-11T06:03:33Z,42.805,6.029,13.3039,4.60081,2470.624,2023-4-11T08:06:28Z
2023-04-11T06:06:36Z,42.805,6.029,13.3029,4.60084,2470.624,2023-4-11T08:09:31Z
2023-04-11T06:09:39Z,42.805,6.029,13.3030,4.60084,2470.624,2023-4-11T08:12:34Z
2023-04-11T06:12:43Z,42.805,6.029,13.3024,4.60093,2470.637,2023-4-11T08:15:37Z
2023-04-11T06:15:46Z,42.805,6.029,13.3022,4.60087,2470.624,2023-4-11T08:18:40Z
2023-04-11T06:18:49Z,42.805,6.029,13.3029,4.60086,2470.646,2023-4-11T08:21:43Z
2023-04-11T06:21:52Z,42.805,6.029,13.3034,4.60099,2470.646,2023-4-11T08:24:46Z
2023-04-11T06:24:55Z,42.805,6.029,13.3061,4.60103,2470.646,2023-4-11T08:27:49Z
2023-04-11T06:27:58Z,42.805,6.029,13.3024,4.60084,2470.67,2023-4-11T08:30:52Z
2023-04-11T06:31:01Z,42.805,6.029,13.3024,4.60082,2470.67,2023-4-11T08:33:56Z
2023-04-11T06:34:04Z,42.805,6.029,13.3024,4.60078,2470.684,2023-4-11T08:36:59Z
2023-04-11T06:37:07Z,42.805,6.029,13.3026,4.60082,2470.67,2023-4-11T08:40:02Z
2023-04-11T06:40:10Z,42.805,6.029,13.3028,4.60090,2470.693,2023-4-11T08:43:05Z
2023-04-11T06:43:13Z,42.805,6.029,13.3037,4.60083,2470.67,2023-4-11T08:46:08Z
2023-04-11T06:46:16Z,42.805,6.029,13.3029,4.60088,2470.646,2023-4-11T08:49:11Z
2023-04-11T06:49:20Z,42.805,6.029,13.3031,4.60083,2470.67,2023-4-11T08:52:14Z
2023-04-11T06:52:23Z,42.805,6.029,13.3024,4.60089,2470.646,2023-4-11T08:55:17Z
2023-04-11T06:55:26Z,42.805,6.029,13.3024,4.60082,2470.646,2023-4-11T08:58:20Z
2023-04-11T06:58:29Z,42.805,6.029,13.3026,4.60079,2470.67,2023-4-11T09:01:23Z
2023-04-11T07:01:32Z,42.805,6.029,13.3022,4.60079,2470.684,2023-4-11T09:04:26Z
2023-04-11T07:04:35Z,42.805,6.029,13.3027,4.60089,2470.646,2023-4-11T09:07:29Z
2023-04-11T07:07:38Z,42.805,6.029,13.3023,4.60079,2470.646,2023-4-11T09:10:32Z
2023-04-11T07:10:41Z,42.805,6.029,13.3027,4.60081,2470.684,2023-4-11T09:13:36Z
2023-04-11T07:13:44Z,42.805,6.029,13.3027,4.60079,2470.693,2023-4-11T09:16:39Z
2023-04-11T07:16:47Z,42.805,6.029,13.3023,4.60079,2470.693,2023-4-11T09:19:42Z
2023-04-11T07:19:50Z,42.805,6.029,13.3022,4.60078,2470.67,2023-4-11T09:22:45Z
2023-04-11T07:22:53Z,42.805,6.029,13.3024,4.60079,2470.684,2023-4-11T09:25:48Z
2023-04-11T07:25:56Z,42.805,6.029,13.3024,4.60079,2470.67,2023-4-11T09:28:51Z
2023-04-11T07:29:00Z,42.805,6.029,13.3025,4.60078,2470.693,2023-4-11T09:31:54Z
2023-04-11T07:32:03Z,42.805,6.029,13.3027,4.60079,2470.67,2023-4-11T09:34:57Z
2023-04-11T07:35:06Z,42.805,6.029,13.3026,4.60080,2470.67,2023-4-11T09:38:00Z
2023-04-11T07:38:09Z,42.805,6.029,13.3026,4.60087,2470.67,2023-4-11T09:41:03Z
2023-04-11T07:41:12Z,42.805,6.029,13.3028,4.60101,2470.684,2023-4-11T09:44:06Z
2023-04-11T07:44:15Z,42.805,6.029,13.3040,4.60095,2470.684,2023-4-11T09:47:09Z
2023-04-11T07:47:18Z,42.805,6.029,13.3031,4.60084,2470.707,2023-4-11T09:50:13Z
2023-04-11T07:50:21Z,42.805,6.029,13.3029,4.60085,2470.707,2023-4-11T09:53:16Z
2023-04-11T07:53:24Z,42.805,6.029,13.3021,4.60087,2470.67,2023-4-11T09:56:19Z
2023-04-11T07:56:27Z,42.805,6.029,13.3021,4.60084,2470.684,2023-4-11T09:59:22Z
2023-04-11T07:59:30Z,42.805,6.029,13.3027,4.60080,2470.693,2023-4-11T10:02:25Z
2023-04-11T08:02:33Z,42.805,6.029,13.3025,4.60079,2470.693,2023-4-11T10:05:28Z
2023-04-11T08:05:37Z,42.805,6.029,13.3028,4.60079,2470.717,2023-4-11T10:08:31Z
2023-04-11T08:08:40Z,42.805,6.029,13.3025,4.60087,2470.707,2023-4-11T10:11:34Z
2023-04-11T08:11:43Z,42.805,6.029,13.3022,4.60084,2470.693,2023-4-11T10:14:37Z
2023-04-11T08:14:46Z,42.805,6.029,13.3024,4.60084,2470.717,2023-4-11T10:17:40Z
2023-04-11T08:17:49Z,42.805,6.029,13.3028,4.60081,2470.717,2023-4-11T10:20:43Z
2023-04-11T08:20:52Z,42.805,6.029,13.3023,4.60079,2470.74,2023-4-11T10:23:46Z
2023-04-11T08:23:55Z,42.805,6.029,13.3026,4.60080,2470.74,2023-4-11T10:26:50Z
2023-04-11T08:26:58Z,42.805,6.029,13.3026,4.60078,2470.74,2023-4-11T10:29:53Z
2023-04-11T08:30:01Z,42.805,6.029,13.3026,4.60079,2470.717,2023-4-11T10:32:56Z
2023-04-11T08:33:04Z,42.805,6.029,13.3026,4.60079,2470.693,2023-4-11T10:35:59Z
2023-04-11T08:36:07Z,42.805,6.029,13.3025,4.60079,2470.717,2023-4-11T10:39:02Z
2023-04-11T08:39:10Z,42.805,6.029,13.3024,4.60084,2470.717,2023-4-11T10:42:05Z
2023-04-11T08:42:14Z,42.805,6.029,13.3024,4.60079,2470.717,2023-4-11T10:45:08Z
2023-04-11T08:45:17Z,42.805,6.029,13.3024,4.60082,2470.693,2023-4-11T10:48:11Z
2023-04-11T08:48:20Z,42.805,6.029,13.3022,4.60085,2470.73,2023-4-11T10:51:14Z
2023-04-11T08:51:23Z,42.805,6.029,13.3031,4.60081,2470.754,2023-4-11T10:54:17Z
2023-04-11T08:54:26Z,42.805,6.029,13.3022,4.60084,2470.717,2023-4-11T10:57:20Z
2023-04-11T08:57:29Z,42.805,6.029,13.3027,4.60084,2470.717,2023-4-11T11:00:23Z
2023-04-11T09:00:32Z,42.805,6.029,13.3028,4.60081,2470.717,2023-4-11T11:03:27Z
2023-04-11T09:03:35Z,42.805,6.029,13.3024,4.60084,2470.754,2023-4-11T11:06:30Z
2023-04-11T09:06:38Z,42.805,6.029,13.3027,4.60084,2470.703,2023-4-11T11:09:33Z
2023-04-11T09:09:41Z,42.805,6.029,13.3024,4.60081,2470.754,2023-4-11T11:12:36Z
2023-04-11T09:12:44Z,42.805,6.029,13.3025,4.60078,2470.754,2023-4-11T11:15:39Z
2023-04-11T09:15:47Z,42.805,6.029,13.3021,4.60081,2470.754,2023-4-11T11:18:42Z
2023-04-11T09:18:51Z,42.805,6.029,13.3026,4.60081,2470.693,2023-4-11T11:21:45Z
2023-04-11T09:21:54Z,42.805,6.029,13.3024,4.60084,2470.73,2023-4-11T11:24:48Z
2023-04-11T09:24:57Z,42.805,6.029,13.3021,4.60084,2470.74,2023-4-11T11:27:51Z
2023-04-11T09:28:00Z,42.805,6.029,13.3024,4.60084,2470.73,2023-4-11T11:30:54Z
2023-04-11T09:31:03Z,42.805,6.029,13.3026,4.60084,2470.763,2023-4-11T11:33:57Z
2023-04-11T09:34:06Z,42.805,6.029,13.3024,4.60084,2470.74,2023-4-11T11:37:01Z
2023-04-11T09:37:09Z,42.805,6.029,13.3024,4.60079,2470.73,2023-4-11T11:40:04Z
2023-04-11T09:40:12Z,42.805,6.029,13.3023,4.60079,2470.717,2023-4-11T11:43:07Z
2023-04-11T09:43:15Z,42.805,6.029,13.3024,4.60079,2470.717,2023-4-11T11:46:10Z
2023-04-11T09:46:18Z,42.805,6.029,13.3027,4.60084,2470.777,2023-4-11T11:49:13Z
2023-04-11T09:49:21Z,42.805,6.029,13.3025,4.60079,2470.777,2023-4-11T11:52:16Z
2023-04-11T09:52:24Z,42.805,6.029,13.3025,4.60080,2470.74,2023-4-11T11:55:19Z
2023-04-11T09:55:28Z,42.805,6.029,13.3024,4.60087,2470.717,2023-4-11T11:58:22Z
2023-04-11T09:58:31Z,42.805,6.029,13.3031,4.60082,2470.754,2023-4-11T12:01:25Z
2023-04-11T10:01:34Z,42.805,6.029,13.3028,4.60096,2470.754,2023-4-11T12:04:28Z
2023-04-11T10:04:37Z,42.805,6.029,13.3041,4.60102,2470.73,2023-4-11T12:07:31Z
2023-04-11T10:07:40Z,42.805,6.029,13.3062,4.60092,2470.717,2023-4-11T12:10:34Z
2023-04-11T10:10:43Z,42.805,6.029,13.3045,4.60107,2470.777,2023-4-11T12:13:38Z
2023-04-11T10:13:46Z,42.805,6.029,13.3043,4.60092,2470.74,2023-4-11T12:16:41Z
2023-04-11T10:16:49Z,42.805,6.029,13.3039,4.60085,2470.74,2023-4-11T12:19:44Z
2023-04-11T10:19:52Z,42.805,6.029,13.3026,4.60090,2470.74,2023-4-11T12:22:47Z
2023-04-11T10:22:55Z,42.805,6.029,13.3021,4.60084,2470.74,2023-4-11T12:25:50Z
2023-04-11T10:25:58Z,42.805,6.029,13.3023,4.60081,2470.73,2023-4-11T12:28:53Z
2023-04-11T10:29:01Z,42.805,6.029,13.3029,4.60089,2470.74,2023-4-11T12:31:56Z
2023-04-11T10:32:05Z,42.805,6.029,13.3046,4.60103,2470.67,2023-4-11T12:34:59Z
2023-04-11T10:35:08Z,42.805,6.029,13.3037,4.60088,2470.74,2023-4-11T12:38:02Z
2023-04-11T10:38:11Z,42.805,6.029,13.3031,4.60083,2470.707,2023-4-11T12:41:05Z
2023-04-11T10:41:14Z,42.805,6.029,13.3038,4.60091,2470.717,2023-4-11T12:44:08Z
2023-04-11T10:44:17Z,42.805,6.029,13.3052,4.60093,2470.73,2023-4-11T12:47:11Z
2023-04-11T10:47:20Z,42.805,6.029,13.3033,4.60091,2470.717,2023-4-11T12:50:15Z
2023-04-11T10:50:23Z,42.805,6.029,13.3023,4.60087,2470.74,2023-4-11T12:53:18Z
2023-04-11T10:53:26Z,42.805,6.029,13.3031,4.60093,2470.74,2023-4-11T12:56:21Z
2023-04-11T10:56:29Z,42.805,6.029,13.3028,4.60095,2470.717,2023-4-11T12:59:24Z
2023-04-11T10:59:32Z,42.805,6.029,13.3029,4.60087,2470.717,2023-4-11T13:02:27Z
2023-04-11T11:02:35Z,42.805,6.029,13.3029,4.60089,2470.73,2023-4-11T13:05:30Z
2023-04-11T11:05:39Z,42.805,6.029,13.3024,4.60085,2470.717,2023-4-11T13:08:33Z
2023-04-11T11:08:42Z,42.805,6.029,13.3024,4.60091,2470.693,2023-4-11T13:11:36Z
2023-04-11T11:11:45Z,42.805,6.029,13.3023,4.60094,2470.717,2023-4-11T13:14:39Z
2023-04-11T11:14:48Z,42.805,6.029,13.3023,4.60093,2470.73,2023-4-11T13:17:42Z
2023-04-11T11:17:51Z,42.805,6.029,13.3027,4.60092,2470.73,2023-4-11T13:20:45Z
2023-04-11T11:20:54Z,42.805,6.029,13.3029,4.60098,2470.693,2023-4-11T13:23:48Z
2023-04-11T11:23:57Z,42.805,6.029,13.3027,4.60094,2470.67,2023-4-11T13:26:52Z
2023-04-11T11:27:00Z,42.805,6.029,13.3022,4.60092,2470.684,2023-4-11T13:29:55Z
2023-04-11T11:30:03Z,42.805,6.029,13.3034,4.60087,2470.67,2023-4-11T13:32:58Z
2023-04-11T11:33:06Z,42.805,6.029,13.3026,4.60110,2470.684,2023-4-11T13:36:01Z
2023-04-11T11:36:09Z,42.805,6.029,13.3024,4.60111,2470.693,2023-4-11T13:39:04Z
2023-04-11T11:39:12Z,42.805,6.029,13.3026,4.60096,2470.73,2023-4-11T13:42:07Z
2023-04-11T11:42:16Z,42.805,6.029,13.3032,4.60107,2470.707,2023-4-11T13:45:10Z
2023-04-11T11:45:19Z,42.805,6.029,13.3051,4.60119,2470.707,2023-4-11T13:48:13Z
2023-04-11T11:48:22Z,42.805,6.029,13.3063,4.60095,2470.67,2023-4-11T13:51:16Z
2023-04-11T11:51:25Z,42.805,6.029,13.3033,4.60108,2470.684,2023-4-11T13:54:19Z
2023-04-11T11:54:28Z,42.805,6.029,13.3051,4.60135,2470.67,2023-4-11T13:57:22Z
2023-04-11T11:57:31Z,42.805,6.029,13.3069,4.60099,2470.646,2023-4-11T14:00:26Z
2023-04-11T12:00:34Z,42.805,6.029,13.3031,4.60096,2470.67,2023-4-11T14:03:29Z
2023-04-11T12:03:37Z,42.805,6.029,13.3025,4.60127,2470.67,2023-4-11T14:06:32Z
2023-04-11T12:06:40Z,42.805,6.029,13.3029,4.60097,2470.707,2023-4-11T14:09:35Z
2023-04-11T12:09:43Z,42.805,6.029,13.3029,4.60096,2470.707,2023-4-11T14:12:38Z
2023-04-11T12:12:46Z,42.805,6.029,13.3026,4.60114,2470.661,2023-4-11T14:15:41Z
2023-04-11T12:15:49Z,42.805,6.029,13.3128,4.60092,2470.646,2023-4-11T14:18:44Z
2023-04-11T12:18:53Z,42.805,6.029,13.3051,4.60105,2470.684,2023-4-11T14:21:47Z
2023-04-11T12:21:56Z,42.805,6.029,13.3104,4.60101,2470.646,2023-4-11T14:24:50Z
2023-04-11T12:24:59Z,42.805,6.029,13.3039,4.60098,2470.693,2023-4-11T14:27:53Z
2023-04-11T12:28:02Z,42.805,6.029,13.3031,4.60110,2470.684,2023-4-11T14:30:56Z
2023-04-11T12:31:05Z,42.805,6.029,13.3029,4.60091,2470.684,2023-4-11T14:33:59Z
2023-04-11T12:34:08Z,42.805,6.029,13.3028,4.60089,2470.67,2023-4-11T14:37:03Z
2023-04-11T12:37:11Z,42.805,6.029,13.3025,4.60096,2470.646,2023-4-11T14:40:06Z
2023-04-11T12:40:14Z,42.805,6.029,13.3031,4.60101,2470.661,2023-4-11T14:43:09Z
2023-04-11T12:43:17Z,42.805,6.029,13.3034,4.60094,2470.67,2023-4-11T14:46:12Z
2023-04-11T12:46:20Z,42.805,6.029,13.3043,4.60092,2470.624,2023-4-11T14:49:15Z
2023-04-11T12:49:23Z,42.805,6.029,13.3040,4.60089,2470.67,2023-4-11T14:52:18Z
2023-04-11T12:52:26Z,42.805,6.029,13.3029,4.60091,2470.637,2023-4-11T14:55:21Z
2023-04-11T12:55:30Z,42.805,6.029,13.3028,4.60099,2470.646,2023-4-11T14:58:24Z
2023-04-11T12:58:33Z,42.805,6.029,13.3029,4.60087,2470.624,2023-4-11T15:01:27Z
2023-04-11T13:01:36Z,42.805,6.029,13.3025,4.60087,2470.684,2023-4-11T15:04:30Z
2023-04-11T13:04:39Z,42.805,6.029,13.3025,4.60094,2470.67,2023-4-11T15:07:33Z
2023-04-11T13:07:42Z,42.805,6.029,13.3029,4.60097,2470.646,2023-4-11T15:10:37Z
2023-04-11T13:10:45Z,42.805,6.029,13.3027,4.60088,2470.661,2023-4-11T15:13:40Z
2023-04-11T13:13:48Z,42.805,6.029,13.3026,4.60085,2470.661,2023-4-11T15:16:43Z
2023-04-11T13:16:51Z,42.805,6.029,13.3026,4.60083,2470.646,2023-4-11T15:19:46Z
2023-04-11T13:19:54Z,42.805,6.029,13.3027,4.60103,2470.646,2023-4-11T15:22:49Z
2023-04-11T13:22:57Z,42.805,6.029,13.3026,4.60084,2470.637,2023-4-11T15:25:52Z
2023-04-11T13:26:00Z,42.805,6.029,13.3025,4.60089,2470.646,2023-4-11T15:28:55Z
2023-04-11T13:29:04Z,42.805,6.029,13.3026,4.60087,2470.637,2023-4-11T15:31:58Z
2023-04-11T13:32:07Z,42.805,6.029,13.3027,4.60085,2470.646,2023-4-11T15:35:01Z
2023-04-11T13:35:10Z,42.805,6.029,13.3027,4.60082,2470.624,2023-4-11T15:38:04Z
2023-04-11T13:38:13Z,42.805,6.029,13.3024,4.60084,2470.624,2023-4-11T15:41:07Z
2023-04-11T13:41:16Z,42.805,6.029,13.3026,4.60086,2470.614,2023-4-11T15:44:10Z
2023-04-11T13:44:19Z,42.805,6.029,13.3025,4.60082,2470.637,2023-4-11T15:47:14Z
2023-04-11T13:47:22Z,42.805,6.029,13.3025,4.60082,2470.637,2023-4-11T15:50:17Z
2023-04-11T13:50:25Z,42.805,6.029,13.3024,4.60084,2470.614,2023-4-11T15:53:20Z
2023-04-11T13:53:28Z,42.805,6.029,13.3026,4.60088,2470.646,2023-4-11T15:56:23Z
2023-04-11T13:56:31Z,42.805,6.029,13.3029,4.60082,2470.646,2023-4-11T15:59:26Z
2023-04-11T13:59:34Z,42.805,6.029,13.3024,4.60089,2470.6,2023-4-11T16:02:29Z
2023-04-11T14:02:37Z,42.805,6.029,13.3029,4.60082,2470.646,2023-4-11T16:05:32Z
2023-04-11T14:05:41Z,42.805,6.029,13.3026,4.60081,2470.624,2023-4-11T16:08:35Z
2023-04-11T14:08:44Z,42.805,6.029,13.3026,4.60094,2470.624,2023-4-11T16:11:38Z
2023-04-11T14:11:47Z,42.805,6.029,13.3027,4.60090,2470.624,2023-4-11T16:14:41Z
2023-04-11T14:14:50Z,42.805,6.029,13.3026,4.60087,2470.6,2023-4-11T16:17:44Z
2023-04-11T14:17:53Z,42.805,6.029,13.3023,4.60080,2470.624,2023-4-11T16:20:48Z
2023-04-11T14:20:56Z,42.805,6.029,13.3029,4.60079,2470.6,2023-4-11T16:23:51Z
2023-04-11T14:23:59Z,42.805,6.029,13.3029,4.60079,2470.624,2023-4-11T16:26:54Z
2023-04-11T14:27:02Z,42.805,6.029,13.3026,4.60079,2470.624,2023-4-11T16:29:57Z
2023-04-11T14:30:05Z,42.805,6.029,13.3026,4.60079,2470.6,2023-4-11T16:33:00Z
2023-04-11T14:33:08Z,42.805,6.029,13.3029,4.60080,2470.614,2023-4-11T16:36:03Z
2023-04-11T14:36:11Z,42.805,6.029,13.3024,4.60080,2470.577,2023-4-11T16:39:06Z
2023-04-11T14:39:14Z,42.805,6.029,13.3024,4.60079,2470.6,2023-4-11T16:42:09Z
2023-04-11T14:42:18Z,42.805,6.029,13.3027,4.60081,2470.624,2023-4-11T16:45:12Z
2023-04-11T14:45:21Z,42.805,6.029,13.3026,4.60081,2470.577,2023-4-11T16:48:15Z
2023-04-11T14:48:24Z,42.805,6.029,13.3026,4.60084,2470.6,2023-4-11T16:51:18Z
2023-04-11T14:51:27Z,42.805,6.029,13.3025,4.60099,2470.6,2023-4-11T16:54:21Z
2023-04-11T14:54:30Z,42.805,6.029,13.3025,4.60087,2470.624,2023-4-11T16:57:25Z
2023-04-11T14:57:33Z,42.805,6.029,13.3026,4.60089,2470.6,2023-4-11T17:00:28Z
2023-04-11T15:00:36Z,42.805,6.029,13.3025,4.60092,2470.637,2023-4-11T17:03:31Z
2023-04-11T15:03:39Z,42.805,6.029,13.3026,4.60081,2470.577,2023-4-11T17:06:34Z
2023-04-11T15:06:42Z,42.805,6.029,13.3026,4.60084,2470.637,2023-4-11T17:09:37Z
2023-04-11T15:09:45Z,42.805,6.029,13.3024,4.60092,2470.591,2023-4-11T17:12:40Z
2023-04-11T15:12:48Z,42.805,6.029,13.3024,4.60090,2470.614,2023-4-11T17:15:43Z